FW8409 Weather Reports


time (UTC)temp
F
wind
direction
speed
knots
gust
knots
rain 1hr
in
rain 24hr
in
rain mn
in
humidity
%
barometer
mb
20260505170949 58 261 0.0 0.9 0.00 0.00 0.00 82 1020.4
20260505165947 58 262 0.0 0.0 0.00 0.00 0.00 82 1020.1
20260505164945 58 260 0.0 0.0 0.00 0.00 0.00 83 1020.2
20260505163946 58 257 0.0 0.0 0.00 0.00 0.00 83 1020.2
20260505162943 57 260 0.0 0.0 0.00 0.00 0.00 84 1020.3
20260505161941 57 261 0.0 0.0 0.00 0.00 0.00 84 1020.3
20260505160941 57 261 0.0 0.0 0.00 0.00 0.00 85 1020.2
20260505152934 56 261 0.0 0.0 0.00 0.00 0.00 86 1020.1
20260505151931 55 259 0.0 0.0 0.00 0.00 0.00 87 1019.9
20260505150931 55 260 0.0 0.0 0.00 0.00 0.00 87 1020.2
20260505124914 54 264 0.0 0.0 0.00 0.00 0.00 88 1018.9
20260505123913 54 264 0.0 0.0 0.00 0.00 0.00 88 1019.2
20260505122911 54 264 0.0 0.0 0.00 0.00 0.00 88 1018.9
20260505121911 54 263 0.0 0.0 0.00 0.00 0.00 88 1018.9
20260505120910 54 263 0.0 0.0 0.00 0.00 0.00 88 1018.9
20260505115905 55 262 0.0 0.0 0.00 0.00 0.00 87 1018.8
20260505114900 55 262 0.0 0.0 0.00 0.00 0.00 87 1018.8
20260505113859 55 256 0.0 0.0 0.00 0.00 0.00 87 1018.8
20260505112857 55 257 0.0 0.0 0.00 0.00 0.00 87 1018.7
20260505111855 55 257 0.0 0.0 0.00 0.00 0.00 87 1018.7
20260505110853 55 263 0.0 0.0 0.00 0.00 0.00 87 1018.8
20260505101844 55 262 0.0 0.0 0.00 0.00 0.00 86 1018.1
20260505100841 55 262 0.0 0.0 0.00 0.00 0.00 86 1018.4
20260505095839 55 262 0.0 0.0 0.00 0.00 0.00 86 1018.3
20260505094839 55 262 0.0 0.0 0.00 0.00 0.00 86 1018.3
20260505093837 55 262 0.0 0.0 0.00 0.00 0.00 86 1018.3
20260505092832 55 262 0.0 0.0 0.00 0.00 0.00 85 1018.2
20260505091827 56 262 0.0 0.0 0.00 0.00 0.00 85 1018.0
20260505090823 56 264 0.0 0.0 0.00 0.00 0.00 84 1017.9
20260505085823 56 261 0.0 0.0 0.00 0.00 0.00 84 1017.9
20260505084819 56 258 0.0 0.0 0.00 0.00 0.00 84 1017.9
20260505083814 57 257 0.0 0.9 0.00 0.00 0.00 84 1017.8
20260505082814 57 255 0.0 0.0 0.00 0.00 0.00 84 1017.7
20260505081813 56 255 0.0 0.0 0.00 0.00 0.00 85 1017.8
20260505080812 56 255 0.0 0.0 0.00 0.00 0.00 86 1017.6
20260505075809 56 255 0.0 0.0 0.00 0.00 0.00 86 1017.6
20260505074804 56 255 0.0 0.0 0.00 0.00 0.00 87 1017.5
20260505073804 56 255 0.0 0.0 0.00 0.00 0.00 86 1017.3
20260505072759 56 255 0.0 0.0 0.00 0.00 0.00 85 1016.9
20260505071756 57 255 0.0 0.0 0.00 0.00 0.00 85 1016.8
20260505070751 57 262 0.0 0.0 0.00 0.00 0.00 84 1016.9
20260505065748 58 256 0.0 0.0 0.00 0.00 0.00 83 1016.9
20260505064749 58 257 0.0 0.0 0.00 0.00 0.00 82 1016.6
20260505063743 59 254 0.0 0.0 0.00 0.00 0.00 82 1016.4
20260505062742 59 258 0.0 0.0 0.00 0.00 0.00 81 1016.2
20260505061742 60 253 0.0 0.0 0.00 0.00 0.00 81 1016.2
20260505060737 60 253 0.0 0.0 0.00 0.00 0.00 81 1016.1
20260505055735 60 253 0.0 0.0 0.00 0.00 0.00 80 1016.2
20260505054735 61 253 0.0 0.0 0.00 0.00 0.00 81 1016.0
20260505053732 61 254 0.0 0.0 0.00 0.00 0.00 82 1016.0
20260505052731 61 254 0.0 0.0 0.00 0.00 0.00 82 1015.8
20260505051730 61 254 0.0 0.0 0.00 0.00 0.00 82 1015.8
20260505050726 62 254 0.0 0.0 0.00 0.00 0.00 82 1015.8
20260505041723 64 253 0.0 0.0 0.00 0.00 0.00 78 1015.2
20260505040718 65 254 0.0 0.0 0.00 0.00 0.00 77 1015.0
20260505035717 66 254 0.0 0.0 0.00 0.00 0.00 76 1014.9
20260505034715 66 253 0.0 0.0 0.00 0.00 0.00 77 1014.8
20260505033714 66 254 0.0 0.0 0.00 0.00 0.00 76 1014.6
20260505032710 67 255 0.0 0.0 0.00 0.00 0.00 75 1014.4
20260505031709 68 255 0.0 0.0 0.00 0.00 0.00 75 1014.2
20260505030708 69 255 0.0 0.0 0.00 0.00 0.00 74 1014.2
20260505025706 69 260 0.0 0.0 0.00 0.00 0.00 73 1013.9
20260505024703 70 253 0.0 0.0 0.00 0.00 0.00 72 1013.9
20260505023657 71 256 0.0 0.0 0.00 0.00 0.00 72 1014.1
20260505022657 72 258 0.0 0.0 0.00 0.00 0.00 70 1013.7
20260505021656 73 260 0.0 0.0 0.00 0.00 0.00 68 1013.9
20260505020655 73 256 0.0 0.0 0.00 0.00 0.00 66 1013.7
20260505015654 75 246 0.0 0.0 0.00 0.00 0.00 63 1013.7
20260505014653 76 259 0.0 0.0 0.00 0.00 0.00 61 1013.7
20260505013653 78 258 0.0 0.0 0.00 0.00 0.00 58 1013.8
20260505012649 80 260 0.0 0.0 0.00 0.00 0.00 55 1013.8
20260505011647 79 256 0.0 0.0 0.00 0.00 0.00 56 1014.0
20260505010645 78 244 0.9 1.7 0.00 0.00 0.00 55 1014.1
20260505005643 79 259 0.0 0.9 0.00 0.00 0.00 55 1014.2
20260505004638 82 260 0.0 0.0 0.00 0.00 0.00 53 1014.4
20260505003637 83 257 0.0 0.0 0.00 0.00 0.00 50 1014.2
20260505002637 81 256 0.0 0.9 0.00 0.00 0.00 53 1014.2
20260505001632 79 257 0.0 1.7 0.00 0.00 0.00 55 1014.0
20260505000632 81 264 0.0 0.9 0.00 0.00 0.00 52 1014.4
20260504235632 81 261 0.0 0.0 0.00 0.00 0.00 52 1014.6
20260504234632 80 260 0.0 1.7 0.00 0.00 0.00 54 1014.5
20260504233630 82 260 0.0 0.0 0.00 0.00 0.00 51 1014.5
20260504232631 80 266 0.9 0.9 0.00 0.00 0.00 53 1014.6
20260504231630 81 259 0.0 0.9 0.00 0.00 0.00 50 1014.6
20260504230628 81 260 0.0 0.9 0.00 0.00 0.00 50 1014.4
20260504225625 79 257 0.0 0.0 0.00 0.00 0.00 53 1014.9
20260504224623 79 256 0.9 0.9 0.00 0.00 0.00 53 1014.8
20260504223623 79 257 0.0 0.9 0.00 0.00 0.00 53 1015.0
20260504222622 77 255 0.0 0.9 0.00 0.00 0.00 56 1015.0
20260504221622 78 260 0.9 0.9 0.00 0.00 0.00 54 1015.1
20260504220621 78 262 0.0 0.9 0.00 0.00 0.00 56 1015.4
20260504215620 75 257 0.0 1.7 0.00 0.00 0.00 56 1015.5
20260504214620 74 255 0.0 0.9 0.00 0.00 0.00 57 1015.4
20260504213619 73 272 0.0 0.9 0.00 0.00 0.00 60 1015.5
20260504212617 74 260 0.0 1.7 0.00 0.00 0.00 61 1015.9
20260504211612 73 258 0.0 1.7 0.00 0.00 0.00 60 1016.0
20260504210612 73 279 0.0 0.0 0.00 0.00 0.00 60 1016.2
20260504205612 73 258 0.0 1.7 0.00 0.00 0.00 59 1016.3
20260504204607 70 293 0.9 1.7 0.00 0.00 0.00 62 1016.5
20260504203604 72 263 0.0 0.9 0.00 0.00 0.00 60 1016.6
20260504202602 70 261 0.0 0.0 0.00 0.00 0.00 65 1016.8
20260504201602 69 261 0.9 0.9 0.00 0.00 0.00 65 1016.6
20260504200602 68 260 0.0 1.7 0.00 0.00 0.00 66 1016.8
20260504195600 68 261 0.0 0.9 0.00 0.00 0.00 65 1017.1
20260504194559 68 261 0.9 1.7 0.00 0.00 0.00 66 1017.0
20260504193557 67 270 0.0 1.7 0.00 0.00 0.00 68 1017.3
20260504192554 65 238 0.0 2.6 0.00 0.00 0.00 71 1017.3
20260504191549 63 257 0.0 0.0 0.00 0.00 0.00 74 1017.5
20260504190548 63 268 0.0 0.0 0.00 0.00 0.00 74 1017.6
20260504185547 62 258 0.0 0.9 0.00 0.00 0.00 75 1017.6
20260504184545 62 274 1.7 1.7 0.00 0.00 0.00 75 1017.9
20260504183543 62 259 0.0 0.9 0.00 0.00 0.00 76 1017.9
20260504182538 62 257 0.9 1.7 0.00 0.00 0.00 76 1017.6
20260504181538 62 262 0.0 0.0 0.00 0.00 0.00 76 1017.3
20260504180535 60 263 0.0 0.9 0.00 0.00 0.00 78 1017.5
20260504175530 61 261 0.9 2.6 0.00 0.00 0.00 77 1017.6
20260504174525 60 258 0.0 0.9 0.00 0.00 0.00 78 1017.8
20260504173524 59 260 0.9 1.7 0.00 0.00 0.00 80 1017.7
20260504172524 59 258 0.0 0.9 0.00 0.00 0.00 81 1017.6